Regional Weather Roundup
Issued by NWS

Home | Current Version | Previous Version | Text Only | Print | Product List | Glossary On
Versions: 1 2 3 4 5 6 7 8 9 10 11 12 13 14 15 16 17 18 19 20 21 22 23 24 25 26 27 28 29 30 31 32 33 34 35 36 37 38 39 40 41 42 43 44 45 46 47 48 49 50
000
ASUS44 KFWD 030215
RWRTX
NORTH TEXAS HOURLY WEATHER ROUNDUP
NATIONAL WEATHER SERVICE FORT WORTH TX
900 PM CDT TUE SEP 02 2014

NOTE: "FAIR" INDICATES FEW OR NO CLOUDS BELOW 12,000 FEET WITH NO
SIGNIFICANT WEATHER AND/OR OBSTRUCTIONS TO VISIBILITY.

TXZ118-119-030300-
DALLAS/FORT WORTH METROPLEX

CITY           SKY/WX    TMP DP  RH WIND       PRES   REMARKS
DFW AIRPORT    PTCLDY    89  71  55 SE13      29.89R HX  95
DALLAS LOVE    PTCLDY    88  71  57 SE17G28   29.90R HX  94
FTW MEACHAM    CLEAR     90  70  51 SE17      29.88R HX  95
DAL-EXECUTIVE  CLEAR     88  71  57 SE13G22   29.91R HX  94
FTW-ALLIANCE   PTCLDY    89  69  51 SE17      29.88R HX  93
FTW-NAS-JRB    PTCLDY    93  67  42 SE15      29.92R HX  96
FTW-SPINKS     CLEAR     86  70  57 SE10      29.92R HX  91
ARLINGTON      CLEAR     88  70  55 SE17G23   29.90R HX  93
GRAND PRAIRIE  CLEAR     88  69  52 E10       29.91R HX  92
ADDISON        CLEAR     88  70  55 SE16G24   29.91R HX  92
LANCASTER      PTCLDY    84  70  61 SE8       29.93R
$$

TXZ091>094-102>105-117-120-121-131>134-030300-
NORTH CENTRAL TEXAS

CITY           SKY/WX    TMP DP  RH WIND       PRES   REMARKS
SHRMAN/DENISON CLEAR     85  66  52 SE9       29.92R
GAINESVILLE    CLEAR     85  70  60 E8        29.92R
BOWIE          CLEAR     83  69  62 SE3       29.90R
BRIDGEPORT     CLEAR     86  63  45 SE5       29.90R
DECATUR        CLEAR     87  65  47 SE7       29.91R
DENTON         CLEAR     88  67  49 SE9       29.89R HX  91
MCKINNEY       CLEAR     85  71  63 SE9       29.91R HX  90
GREENVILLE     PTCLDY    82  72  69 SE8       29.94R
ROCKWALL       PTCLDY    84  70  61 SE8       29.92R
TERRELL        MOCLDY    86  69  56 SE10      29.93R HX  90
WAXAHACHIE     CLEAR     85  66  54 SE9       29.93R
GRANBURY       CLEAR     91  68  47 SE12      29.91R HX  94
$$

TXZ083>090-098>101-113>116-127>130-139>142-154-155-030300-
WESTERN NORTH TEXAS

CITY           SKY/WX    TMP DP  RH WIND       PRES   REMARKS
WICHITA FALLS  CLEAR     88  66  48 SE10      29.86R HX  90
WF-KICKAPOO    CLEAR     89  62  40 SE10      29.88R HX  90
VERNON         CLEAR     91  62  37 S12       29.87R HX  92
ABILENE        CLEAR     88  60  38 SE5       29.92R
ABILENE-DYESS  CLEAR     88  63  42 SE8       29.90R
BRECKENRIDGE   CLEAR     90  63  39 SE7       29.89R HX  90
GRAHAM         CLEAR     89  64  42 SE6       29.87R HX  90
MINERAL WELLS  CLEAR     86  67  52 SE7       29.88R
STEPHENVILLE   CLEAR     87  67  52 SE9       29.95R
COMANCHE         N/A     86  67  51 SE8       29.92R
BROWNWOOD      PTCLDY    88  64  45 MISG      29.91R
COLEMAN        CLEAR     89  60  38 SE8       29.91R
BRADY          CLEAR     88  66  48 SE12      29.92R HX  90
$$

TXZ143>147-156>162-174-175-030300-
CENTRAL TEXAS

CITY           SKY/WX    TMP DP  RH WIND       PRES   REMARKS
WACO           CLEAR     88  70  55 SE13      29.90R HX  93
WACO-TSTC      CLEAR     84  72  65 S12       29.91R
WACO-MCGREGOR  CLEAR     88  66  48 S12       29.91R HX  90
HILLSBORO      CLEAR     84  69  60 E10G21    29.92R
CORSICANA      MOCLDY    83  73  72 SE10      29.95R
MEXIA          PTCLDY    79  74  84 SE5       29.93R
HEARNE           N/A     82  75  79 E5        29.94R
CAMERON        MOCLDY    86  72  63 SE8       29.92R HX  91
TEMPLE         CLEAR     86  66  51 SE12      29.91R
KILLEEN        PTCLDY    88  70  55 SE17      29.91R HX  92
KILLEEN-SKYLRK CLEAR     86  68  54 SE10      29.91R
FORT HOOD      CLEAR     89  69  51 SE7       29.92R HX  93
GATESVILLE     CLEAR     86  72  62 SE6       29.93R HX  92
HAMILTON       CLEAR     86  68  55 S13       29.93R
LAMPASAS       CLEAR     86  70  59 SE7       29.92R HX  90
$$

TXZ095>097-106>112-122>126-135>138-148>153-164>167-030300-
EAST TEXAS

CITY           SKY/WX    TMP DP  RH WIND       PRES   REMARKS
PARIS          MOCLDY    81  66  61 SE8       29.95R
SULPHUR SPRNGS PTCLDY    82  70  68 SE9       29.97R
MOUNT PLEASANT MOCLDY    76  70  83 S5        29.99R
GILMER         MOCLDY    75  75 100 S5        29.99R
MINEOLA        PTCLDY    81  73  78 SE5       29.97R
TYLER          PTCLDY    79  72  79 SE7       29.96R
LONGVIEW       MOCLDY    76  72  87 S8        29.97R
MARSHALL       MOCLDY    76  73  91 CALM      30.01R
ATHENS         MOCLDY    77  72  83 SE5       29.95R
PALESTINE      MOCLDY    77  75  94 E6        29.97R
JACKSONVILLE   MOCLDY    76  74  93 SE5       30.01R
HENDERSON      MOCLDY    74  73  96 S5        29.99R
NACOGDOCHES    MOCLDY    73  72  94 E3        29.99R
LUFKIN         CLOUDY    79  75  87 E5        29.98R
$$

SUPPLEMENTAL OBSERVATIONS (CENTRAL)

CITY           SKY/WX    TMP DP  RH WIND       PRES   REMARKS
LAKE TEXOMA      N/A     84  66  54 SE5         N/A
CADDO GRASSLND   N/A     82  66  57 S6          N/A
PAT MAYSE LAKE   N/A     82  70  65 SE9         N/A
GREENVILLE       N/A     82  72  69 SE6         N/A
CEDAR HILL       N/A     86  68  54 SE10        N/A
PALESTINE        N/A     75  72  88 E3          N/A
LAKE LIMESTONE   N/A     81  73  78 SE7         N/A
MCGREGOR         N/A     88  68  51 S9          N/A  HX  91
TEMPLE           N/A     86  70  58 SE8         N/A  HX  90
$$

SUPPLEMENTAL OBSERVATIONS (WEST)

CITY           SKY/WX    TMP DP  RH WIND       PRES   REMARKS
MILLERS CREEK    N/A     90  61  37 SE10        N/A
POSSUM KINGDOM   N/A     88  63  42 SE7         N/A
LBJ GRASSLAND    N/A     88  66  48 SE7         N/A  HX  90
GRANBURY         N/A     90  66  45 SE13        N/A  HX  92
COMANCHE         N/A     86  66  51 SE10G23     N/A
HAMBY            N/A     88  59  37 SE5         N/A
IVIE RESERVOIR   N/A    N/A N/A N/A SE8         N/A
$$

SUPPLEMENTAL OBSERVATIONS (EAST)

CITY           SKY/WX    TMP DP  RH WIND       PRES   REMARKS
CLARKSVILLE      N/A     79  68  69 S8          N/A
TEXARKANA        N/A     73  70  88 CALM        N/A
LINDEN           N/A     75  72  88 S2          N/A
GILMER           N/A     75  70  83 S3          N/A
HENDERSON        N/A     73  70  88 S5          N/A
LUFKIN           N/A     77  73  88 MISG        N/A
N SABINE NF      N/A     75  73  94 MISG        N/A
$$

SUPPLEMENTAL OBSERVATIONS ARE A COLLECTION OF AUTOMATED INSTRUMENTS
THAT ARE MAINTAINED BY A VARIETY OF FEDERAL AND STATE AGENCIES.
CERTAIN ELEMENTS...SUCH AS HUMIDITY VALUES AND SUSTAINED WIND
SPEEDS...MAY BE APPROXIMATED.



USA.gov is the U.S. government's official web portal to all federal, state and local government web resources and services.